contact:dominique.lefevre@mio.osupytheas.fr, maurice.libes@osupytheas.fr, didier.mallarino@osupytheas.fr
Project:EMSO http://www.emso-fr.org/EMSO-France
Depth: 2436.0 m
Title:EMSO Ligure Ouest : Data MII capteur CSTAR
DateTime,Latitude,Longitude,Instrument_Serial,Reference_Counts,Signal_Counts,Corrected_Signal_raw_counts,Calculated_Beam_c_inverse_meters,Internal_thermistor_counts
DateTime,Latitude,Longitude,Instrument_Serial,Reference_Counts,Signal_Counts,Corrected_Signal_raw_counts,Calculated_Beam_c_inverse_meters,Internal_thermistor_counts
2023-04-07T00:00:38,42.805,6.029,CST-1368DR,4330,4723,11583,01.195,551
2023-04-07T00:03:40,42.805,6.029,CST-1368DR,4330,4725,11589,01.193,551
2023-04-07T00:06:41,42.805,6.029,CST-1368DR,4330,4721,11578,01.197,551
2023-04-07T00:09:43,42.805,6.029,CST-1368DR,4330,4720,11576,01.197,551
2023-04-07T00:12:45,42.805,6.029,CST-1368DR,4330,4722,11581,01.196,551
2023-04-07T00:15:46,42.805,6.029,CST-1368DR,4330,4725,11589,01.193,551
2023-04-07T00:18:48,42.805,6.029,CST-1368DR,4330,4723,11584,01.195,551
2023-04-07T00:21:49,42.805,6.029,CST-1368DR,4330,4723,11583,01.195,551
2023-04-07T00:24:51,42.805,6.029,CST-1368DR,4330,4730,11600,01.189,551
2023-04-07T00:27:52,42.805,6.029,CST-1368DR,4330,4724,11586,01.194,551
2023-04-07T00:30:54,42.805,6.029,CST-1368DR,4330,4727,11592,01.192,551
2023-04-07T00:33:56,42.805,6.029,CST-1368DR,4330,4723,11583,01.195,551
2023-04-07T00:36:57,42.805,6.029,CST-1368DR,4330,4722,11582,01.195,551
2023-04-07T00:39:59,42.805,6.029,CST-1368DR,4330,4726,11591,01.192,551
2023-04-07T00:43:00,42.805,6.029,CST-1368DR,4330,4726,11592,01.192,551
2023-04-07T00:46:02,42.805,6.029,CST-1368DR,4330,4726,11591,01.192,551
2023-04-07T00:49:03,42.805,6.029,CST-1368DR,4330,4716,11567,01.201,551
2023-04-07T00:52:05,42.805,6.029,CST-1368DR,4330,4718,11571,01.199,551
2023-04-07T00:55:07,42.805,6.029,CST-1368DR,4330,4727,11593,01.192,551
2023-04-07T00:58:08,42.805,6.029,CST-1368DR,4330,4729,11599,01.190,551
2023-04-07T01:01:10,42.805,6.029,CST-1368DR,4330,4726,11591,01.192,551
2023-04-07T01:04:11,42.805,6.029,CST-1368DR,4330,4725,11589,01.193,551
2023-04-07T01:07:13,42.805,6.029,CST-1368DR,4330,4718,11572,01.199,551
2023-04-07T01:10:15,42.805,6.029,CST-1368DR,4330,4723,11584,01.195,551
2023-04-07T01:13:16,42.805,6.029,CST-1368DR,4330,4723,11582,01.195,551
2023-04-07T01:16:18,42.805,6.029,CST-1368DR,4330,4725,11588,01.193,551
2023-04-07T01:19:19,42.805,6.029,CST-1368DR,4330,4723,11584,01.195,551
2023-04-07T01:22:21,42.805,6.029,CST-1368DR,4330,4734,11610,01.186,551
2023-04-07T01:25:22,42.805,6.029,CST-1368DR,4330,4719,11573,01.198,551
2023-04-07T01:28:24,42.805,6.029,CST-1368DR,4330,4722,11580,01.196,551
2023-04-07T01:31:26,42.805,6.029,CST-1368DR,4330,4723,11584,01.195,551
2023-04-07T01:34:27,42.805,6.029,CST-1368DR,4330,4728,11595,01.191,551
2023-04-07T01:37:29,42.805,6.029,CST-1368DR,4330,4727,11593,01.192,551
2023-04-07T01:40:30,42.805,6.029,CST-1368DR,4330,4724,11585,01.194,551
2023-04-07T01:43:32,42.805,6.029,CST-1368DR,4330,4727,11593,01.192,551
2023-04-07T01:46:33,42.805,6.029,CST-1368DR,4330,4723,11582,01.195,551
2023-04-07T01:49:35,42.805,6.029,CST-1368DR,4330,4725,11588,01.193,552
2023-04-07T01:52:37,42.805,6.029,CST-1368DR,4330,4730,11601,01.189,551
2023-04-07T01:55:38,42.805,6.029,CST-1368DR,4330,4721,11578,01.197,551
2023-04-07T01:58:40,42.805,6.029,CST-1368DR,4330,4722,11581,01.196,551
2023-04-07T02:01:41,42.805,6.029,CST-1368DR,4330,4723,11583,01.195,551
2023-04-07T02:04:43,42.805,6.029,CST-1368DR,4330,4724,11586,01.194,551
2023-04-07T02:07:45,42.805,6.029,CST-1368DR,4330,4725,11587,01.194,551
2023-04-07T02:10:46,42.805,6.029,CST-1368DR,4330,4722,11581,01.196,552
2023-04-07T02:13:48,42.805,6.029,CST-1368DR,4330,4720,11576,01.197,551
2023-04-07T02:16:49,42.805,6.029,CST-1368DR,4330,4725,11589,01.193,551
2023-04-07T02:19:51,42.805,6.029,CST-1368DR,4330,4722,11580,01.196,552
2023-04-07T02:22:52,42.805,6.029,CST-1368DR,4330,4727,11593,01.192,551
2023-04-07T02:25:54,42.805,6.029,CST-1368DR,4330,4727,11593,01.192,551
2023-04-07T02:28:56,42.805,6.029,CST-1368DR,4330,4719,11574,01.198,551
2023-04-07T02:31:57,42.805,6.029,CST-1368DR,4330,4723,11583,01.195,551
2023-04-07T02:34:59,42.805,6.029,CST-1368DR,4330,4717,11570,01.200,551
2023-04-07T02:38:00,42.805,6.029,CST-1368DR,4330,4727,11592,01.192,551
2023-04-07T02:41:02,42.805,6.029,CST-1368DR,4330,4727,11593,01.192,551
2023-04-07T02:44:03,42.805,6.029,CST-1368DR,4330,4723,11584,01.195,551
2023-04-07T02:47:05,42.805,6.029,CST-1368DR,4330,4726,11590,01.193,551
2023-04-07T02:50:07,42.805,6.029,CST-1368DR,4330,4729,11598,01.190,551
2023-04-07T02:53:08,42.805,6.029,CST-1368DR,4330,4727,11592,01.192,551
2023-04-07T02:56:10,42.805,6.029,CST-1368DR,4330,4729,11598,01.190,551
2023-04-07T02:59:11,42.805,6.029,CST-1368DR,4330,4729,11598,01.190,551
2023-04-07T03:02:13,42.805,6.029,CST-1368DR,4330,4729,11599,01.190,551
2023-04-07T03:05:15,42.805,6.029,CST-1368DR,4330,4726,11590,01.193,551
2023-04-07T03:08:16,42.805,6.029,CST-1368DR,4330,4728,11596,01.191,551
2023-04-07T03:11:18,42.805,6.029,CST-1368DR,4330,4721,11578,01.197,551
2023-04-07T03:14:19,42.805,6.029,CST-1368DR,4330,4729,11597,01.190,552
2023-04-07T03:17:21,42.805,6.029,CST-1368DR,4330,4729,11598,01.190,551
2023-04-07T03:20:22,42.805,6.029,CST-1368DR,4330,4725,11588,01.193,551
2023-04-07T03:23:24,42.805,6.029,CST-1368DR,4330,4729,11598,01.190,551
2023-04-07T03:26:26,42.805,6.029,CST-1368DR,4330,4727,11593,01.192,551
2023-04-07T03:29:27,42.805,6.029,CST-1368DR,4330,4730,11601,01.189,551
2023-04-07T03:32:29,42.805,6.029,CST-1368DR,4330,4727,11593,01.192,551
2023-04-07T03:35:30,42.805,6.029,CST-1368DR,4330,4723,11583,01.195,551
2023-04-07T03:38:32,42.805,6.029,CST-1368DR,4330,4730,11600,01.189,551
2023-04-07T03:41:34,42.805,6.029,CST-1368DR,4330,4726,11592,01.192,551
2023-04-07T03:44:35,42.805,6.029,CST-1368DR,4330,4721,11578,01.197,551
2023-04-07T03:47:37,42.805,6.029,CST-1368DR,4330,4726,11591,01.192,551
2023-04-07T03:50:38,42.805,6.029,CST-1368DR,4330,4726,11591,01.192,552
2023-04-07T03:53:40,42.805,6.029,CST-1368DR,4330,4728,11597,01.190,551
2023-04-07T03:56:41,42.805,6.029,CST-1368DR,4330,4710,11551,01.206,551
2023-04-07T03:59:43,42.805,6.029,CST-1368DR,4330,4728,11597,01.190,551
2023-04-07T04:02:45,42.805,6.029,CST-1368DR,4330,4726,11590,01.193,551
2023-04-07T04:05:46,42.805,6.029,CST-1368DR,4330,4725,11587,01.194,551
2023-04-07T04:08:48,42.805,6.029,CST-1368DR,4330,4724,11586,01.194,551
2023-04-07T04:11:49,42.805,6.029,CST-1368DR,4330,4724,11586,01.194,551
2023-04-07T04:14:51,42.805,6.029,CST-1368DR,4330,4722,11582,01.195,551
2023-04-07T04:17:52,42.805,6.029,CST-1368DR,4330,4734,11611,01.185,551
2023-04-07T04:20:54,42.805,6.029,CST-1368DR,4330,4727,11592,01.192,551
2023-04-07T04:23:56,42.805,6.029,CST-1368DR,4330,4731,11603,01.188,551
2023-04-07T04:26:57,42.805,6.029,CST-1368DR,4330,4726,11592,01.192,551
2023-04-07T04:29:59,42.805,6.029,CST-1368DR,4330,4725,11589,01.193,551
2023-04-07T04:33:00,42.805,6.029,CST-1368DR,4330,4726,11590,01.193,551
2023-04-07T04:36:02,42.805,6.029,CST-1368DR,4330,4727,11593,01.192,551
2023-04-07T04:39:04,42.805,6.029,CST-1368DR,4330,4728,11595,01.191,551
2023-04-07T04:42:05,42.805,6.029,CST-1368DR,4330,4724,11586,01.194,551
2023-04-07T04:45:07,42.805,6.029,CST-1368DR,4330,4727,11593,01.192,551
2023-04-07T04:48:08,42.805,6.029,CST-1368DR,4330,4725,11588,01.193,551
2023-04-07T04:51:10,42.805,6.029,CST-1368DR,4330,4723,11584,01.195,551
2023-04-07T04:54:11,42.805,6.029,CST-1368DR,4330,4723,11583,01.195,551
2023-04-07T04:57:13,42.805,6.029,CST-1368DR,4330,4725,11589,01.193,551
2023-04-07T05:00:15,42.805,6.029,CST-1368DR,4330,4725,11589,01.193,551
2023-04-07T05:03:16,42.805,6.029,CST-1368DR,4330,4729,11598,01.190,551
2023-04-07T05:06:18,42.805,6.029,CST-1368DR,4330,4728,11596,01.191,551
2023-04-07T05:09:19,42.805,6.029,CST-1368DR,4330,4732,11605,01.187,551
2023-04-07T05:12:21,42.805,6.029,CST-1368DR,4330,4733,11609,01.186,551
2023-04-07T05:15:22,42.805,6.029,CST-1368DR,4330,4729,11598,01.190,551
2023-04-07T05:18:24,42.805,6.029,CST-1368DR,4330,4730,11601,01.189,551
2023-04-07T05:21:26,42.805,6.029,CST-1368DR,4330,4727,11594,01.191,551
2023-04-07T05:24:27,42.805,6.029,CST-1368DR,4330,4726,11590,01.193,551
2023-04-07T05:27:29,42.805,6.029,CST-1368DR,4330,4711,11553,01.205,551
2023-04-07T05:30:30,42.805,6.029,CST-1368DR,4330,4729,11597,01.190,551
2023-04-07T05:33:32,42.805,6.029,CST-1368DR,4330,4724,11585,01.194,551
2023-04-07T05:36:34,42.805,6.029,CST-1368DR,4330,4723,11582,01.195,551
2023-04-07T05:39:35,42.805,6.029,CST-1368DR,4330,4724,11586,01.194,551
2023-04-07T05:42:37,42.805,6.029,CST-1368DR,4330,4725,11587,01.194,551
2023-04-07T05:45:38,42.805,6.029,CST-1368DR,4330,4721,11578,01.197,551
2023-04-07T05:48:40,42.805,6.029,CST-1368DR,4330,4722,11581,01.196,551
2023-04-07T05:51:41,42.805,6.029,CST-1368DR,4330,4733,11607,01.187,551
2023-04-07T05:54:43,42.805,6.029,CST-1368DR,4330,4722,11581,01.196,551
2023-04-07T05:57:45,42.805,6.029,CST-1368DR,4330,4721,11578,01.197,551
2023-04-07T06:00:46,42.805,6.029,CST-1368DR,4330,4721,11579,01.196,551
2023-04-07T06:03:48,42.805,6.029,CST-1368DR,4330,4720,11576,01.197,551
2023-04-07T06:06:49,42.805,6.029,CST-1368DR,4330,4719,11574,01.198,551
2023-04-07T06:09:51,42.805,6.029,CST-1368DR,4330,4720,11575,01.198,551
2023-04-07T06:12:52,42.805,6.029,CST-1368DR,4330,4727,11593,01.192,551
2023-04-07T06:15:54,42.805,6.029,CST-1368DR,4330,4718,11572,01.199,551
2023-04-07T06:18:56,42.805,6.029,CST-1368DR,4330,4720,11576,01.197,551
2023-04-07T06:21:57,42.805,6.029,CST-1368DR,4330,4721,11578,01.197,551
2023-04-07T06:24:59,42.805,6.029,CST-1368DR,4330,4721,11578,01.197,551
2023-04-07T06:28:00,42.805,6.029,CST-1368DR,4330,4721,11579,01.196,551
2023-04-07T06:31:02,42.805,6.029,CST-1368DR,4330,4720,11575,01.198,551
2023-04-07T06:34:03,42.805,6.029,CST-1368DR,4330,4720,11575,01.198,551
2023-04-07T06:37:05,42.805,6.029,CST-1368DR,4330,4720,11577,01.197,551
2023-04-07T06:40:07,42.805,6.029,CST-1368DR,4330,4722,11581,01.196,551
2023-04-07T06:43:08,42.805,6.029,CST-1368DR,4330,4717,11570,01.200,551
2023-04-07T06:46:10,42.805,6.029,CST-1368DR,4330,4721,11578,01.197,551
2023-04-07T06:49:11,42.805,6.029,CST-1368DR,4330,4721,11578,01.197,551
2023-04-07T06:52:13,42.805,6.029,CST-1368DR,4330,4720,11576,01.197,551
2023-04-07T06:55:15,42.805,6.029,CST-1368DR,4330,4719,11574,01.198,551
2023-04-07T06:58:16,42.805,6.029,CST-1368DR,4330,4720,11577,01.197,551
2023-04-07T07:01:18,42.805,6.029,CST-1368DR,4330,4721,11579,01.196,551
2023-04-07T07:04:19,42.805,6.029,CST-1368DR,4330,4716,11567,01.201,551
2023-04-07T07:07:21,42.805,6.029,CST-1368DR,4330,4715,11563,01.202,551
2023-04-07T07:10:22,42.805,6.029,CST-1368DR,4330,4717,11568,01.200,551
2023-04-07T07:13:24,42.805,6.029,CST-1368DR,4330,4717,11570,01.200,551
2023-04-07T07:16:26,42.805,6.029,CST-1368DR,4330,4716,11566,01.201,551
2023-04-07T07:19:27,42.805,6.029,CST-1368DR,4330,4716,11566,01.201,551
2023-04-07T07:22:29,42.805,6.029,CST-1368DR,4330,4715,11564,01.202,551
2023-04-07T07:25:30,42.805,6.029,CST-1368DR,4330,4717,11568,01.200,551
2023-04-07T07:28:32,42.805,6.029,CST-1368DR,4330,4715,11563,01.202,551
2023-04-07T07:31:34,42.805,6.029,CST-1368DR,4330,4710,11551,01.206,551
2023-04-07T07:34:35,42.805,6.029,CST-1368DR,4330,4715,11564,01.202,551
2023-04-07T07:37:37,42.805,6.029,CST-1368DR,4330,4715,11565,01.201,551
2023-04-07T07:40:38,42.805,6.029,CST-1368DR,4329,4713,11562,01.202,551
2023-04-07T07:43:40,42.805,6.029,CST-1368DR,4330,4715,11565,01.201,551
2023-04-07T07:46:41,42.805,6.029,CST-1368DR,4330,4715,11564,01.202,552
2023-04-07T07:49:43,42.805,6.029,CST-1368DR,4330,4715,11563,01.202,551
2023-04-07T07:52:45,42.805,6.029,CST-1368DR,4329,4716,11568,01.200,551
2023-04-07T07:55:46,42.805,6.029,CST-1368DR,4329,4714,11564,01.202,551
2023-04-07T07:58:48,42.805,6.029,CST-1368DR,4329,4715,11567,01.201,551
2023-04-07T08:01:49,42.805,6.029,CST-1368DR,4329,4713,11562,01.202,551
2023-04-07T08:04:51,42.805,6.029,CST-1368DR,4329,4713,11560,01.203,551
2023-04-07T08:07:52,42.805,6.029,CST-1368DR,4329,4714,11564,01.202,551
2023-04-07T08:10:54,42.805,6.029,CST-1368DR,4329,4712,11560,01.203,551
2023-04-07T08:13:56,42.805,6.029,CST-1368DR,4329,4712,11560,01.203,551
2023-04-07T08:16:57,42.805,6.029,CST-1368DR,4329,4712,11558,01.204,551
2023-04-07T08:19:59,42.805,6.029,CST-1368DR,4329,4712,11559,01.203,551
2023-04-07T08:23:00,42.805,6.029,CST-1368DR,4329,4714,11563,01.202,551
2023-04-07T08:26:02,42.805,6.029,CST-1368DR,4329,4711,11557,01.204,551
2023-04-07T08:29:04,42.805,6.029,CST-1368DR,4329,4711,11556,01.204,551
2023-04-07T08:32:05,42.805,6.029,CST-1368DR,4329,4709,11551,01.206,551
2023-04-07T08:35:06,42.805,6.029,CST-1368DR,4329,4711,11556,01.204,551
2023-04-07T08:38:08,42.805,6.029,CST-1368DR,4329,4711,11557,01.204,551
2023-04-07T08:41:10,42.805,6.029,CST-1368DR,4329,4710,11554,01.205,551
2023-04-07T08:44:11,42.805,6.029,CST-1368DR,4329,4711,11557,01.204,551
2023-04-07T08:47:13,42.805,6.029,CST-1368DR,4329,4714,11563,01.202,551
2023-04-07T08:50:14,42.805,6.029,CST-1368DR,4329,4709,11553,01.205,551
2023-04-07T08:53:16,42.805,6.029,CST-1368DR,4329,4715,11565,01.201,551
2023-04-07T08:56:17,42.805,6.029,CST-1368DR,4329,4713,11561,01.203,551
2023-04-07T08:59:19,42.805,6.029,CST-1368DR,4329,4714,11564,01.202,551
2023-04-07T09:02:21,42.805,6.029,CST-1368DR,4330,4714,11562,01.202,551
2023-04-07T09:05:22,42.805,6.029,CST-1368DR,4329,4713,11561,01.203,551
2023-04-07T09:08:24,42.805,6.029,CST-1368DR,4330,4715,11563,01.202,551
2023-04-07T09:11:25,42.805,6.029,CST-1368DR,4329,4715,11566,01.201,551
2023-04-07T09:14:27,42.805,6.029,CST-1368DR,4329,4712,11560,01.203,551
2023-04-07T09:17:28,42.805,6.029,CST-1368DR,4329,4713,11561,01.203,551
2023-04-07T09:20:30,42.805,6.029,CST-1368DR,4330,4714,11562,01.202,551
2023-04-07T09:23:32,42.805,6.029,CST-1368DR,4330,4713,11558,01.204,551
2023-04-07T09:26:33,42.805,6.029,CST-1368DR,4329,4712,11559,01.203,551
2023-04-07T09:29:35,42.805,6.029,CST-1368DR,4329,4713,11562,01.202,552
2023-04-07T09:32:36,42.805,6.029,CST-1368DR,4330,4714,11561,01.203,551
2023-04-07T09:35:38,42.805,6.029,CST-1368DR,4329,4712,11559,01.203,551
2023-04-07T09:38:40,42.805,6.029,CST-1368DR,4330,4714,11562,01.202,551
2023-04-07T09:41:41,42.805,6.029,CST-1368DR,4329,4713,11561,01.203,551
2023-04-07T09:44:43,42.805,6.029,CST-1368DR,4329,4711,11557,01.204,551
2023-04-07T09:47:44,42.805,6.029,CST-1368DR,4329,4713,11562,01.202,551
2023-04-07T09:50:46,42.805,6.029,CST-1368DR,4330,4715,11564,01.202,551
2023-04-07T09:53:47,42.805,6.029,CST-1368DR,4329,4714,11563,01.202,551
2023-04-07T09:56:49,42.805,6.029,CST-1368DR,4329,4713,11562,01.202,551
2023-04-07T09:59:51,42.805,6.029,CST-1368DR,4330,4717,11568,01.200,551
2023-04-07T10:02:52,42.805,6.029,CST-1368DR,4329,4715,11566,01.201,551
2023-04-07T10:05:54,42.805,6.029,CST-1368DR,4329,4716,11570,01.200,551
2023-04-07T10:08:55,42.805,6.029,CST-1368DR,4329,4714,11563,01.202,551
2023-04-07T10:11:57,42.805,6.029,CST-1368DR,4330,4716,11566,01.201,551
2023-04-07T10:14:58,42.805,6.029,CST-1368DR,4330,4715,11563,01.202,551
2023-04-07T10:18:00,42.805,6.029,CST-1368DR,4329,4717,11570,01.200,551
2023-04-07T10:21:02,42.805,6.029,CST-1368DR,4329,4716,11570,01.200,551
2023-04-07T10:24:03,42.805,6.029,CST-1368DR,4329,4711,11557,01.204,551
2023-04-07T10:27:05,42.805,6.029,CST-1368DR,4329,4715,11566,01.201,551
2023-04-07T10:30:06,42.805,6.029,CST-1368DR,4329,4713,11560,01.203,551
2023-04-07T10:33:08,42.805,6.029,CST-1368DR,4329,4713,11560,01.203,551
2023-04-07T10:36:10,42.805,6.029,CST-1368DR,4329,4716,11568,01.200,551
2023-04-07T10:39:11,42.805,6.029,CST-1368DR,4329,4711,11556,01.204,551
2023-04-07T10:42:13,42.805,6.029,CST-1368DR,4329,4715,11565,01.201,551
2023-04-07T10:45:14,42.805,6.029,CST-1368DR,4329,4711,11557,01.204,551
2023-04-07T10:48:16,42.805,6.029,CST-1368DR,4329,4712,11559,01.203,551
2023-04-07T10:51:17,42.805,6.029,CST-1368DR,4329,4713,11562,01.202,551
2023-04-07T10:54:19,42.805,6.029,CST-1368DR,4329,4716,11568,01.200,552
2023-04-07T10:57:21,42.805,6.029,CST-1368DR,4329,4712,11558,01.204,551
2023-04-07T11:00:22,42.805,6.029,CST-1368DR,4329,4710,11555,01.205,551
2023-04-07T11:03:24,42.805,6.029,CST-1368DR,4329,4711,11556,01.204,551
2023-04-07T11:06:25,42.805,6.029,CST-1368DR,4329,4714,11563,01.202,551
2023-04-07T11:09:27,42.805,6.029,CST-1368DR,4329,4714,11564,01.202,551
2023-04-07T11:12:28,42.805,6.029,CST-1368DR,4329,4711,11557,01.204,551
2023-04-07T11:15:30,42.805,6.029,CST-1368DR,4329,4676,11470,01.234,551
2023-04-07T11:18:32,42.805,6.029,CST-1368DR,4329,4713,11561,01.203,551
2023-04-07T11:21:33,42.805,6.029,CST-1368DR,4329,4713,11562,01.202,551
2023-04-07T11:24:35,42.805,6.029,CST-1368DR,4329,4712,11558,01.204,551
2023-04-07T11:27:36,42.805,6.029,CST-1368DR,4329,4714,11564,01.202,552
2023-04-07T11:30:38,42.805,6.029,CST-1368DR,4329,4714,11564,01.202,551
2023-04-07T11:33:39,42.805,6.029,CST-1368DR,4329,4710,11554,01.205,551
2023-04-07T11:36:41,42.805,6.029,CST-1368DR,4329,4709,11553,01.205,551
2023-04-07T11:39:43,42.805,6.029,CST-1368DR,4329,4714,11563,01.202,551
2023-04-07T11:42:44,42.805,6.029,CST-1368DR,4329,4713,11561,01.203,551
2023-04-07T11:45:46,42.805,6.029,CST-1368DR,4329,4711,11557,01.204,551
2023-04-07T11:48:47,42.805,6.029,CST-1368DR,4329,4715,11565,01.201,551
2023-04-07T11:51:49,42.805,6.029,CST-1368DR,4329,4714,11563,01.202,551
2023-04-07T11:54:51,42.805,6.029,CST-1368DR,4329,4716,11568,01.200,551
2023-04-07T11:57:52,42.805,6.029,CST-1368DR,4329,4717,11572,01.199,551
2023-04-07T12:00:54,42.805,6.029,CST-1368DR,4329,4713,11560,01.203,551
2023-04-07T12:03:55,42.805,6.029,CST-1368DR,4329,4718,11574,01.198,551
2023-04-07T12:06:57,42.805,6.029,CST-1368DR,4329,4715,11566,01.201,551
2023-04-07T12:09:58,42.805,6.029,CST-1368DR,4329,4712,11558,01.204,551
2023-04-07T12:13:00,42.805,6.029,CST-1368DR,4329,4714,11563,01.202,551
2023-04-07T12:16:02,42.805,6.029,CST-1368DR,4329,4722,11584,01.195,551
2023-04-07T12:19:03,42.805,6.029,CST-1368DR,4329,4716,11568,01.200,551
2023-04-07T12:22:05,42.805,6.029,CST-1368DR,4329,4717,11572,01.199,551
2023-04-07T12:25:06,42.805,6.029,CST-1368DR,4329,4718,11574,01.198,551
2023-04-07T12:28:08,42.805,6.029,CST-1368DR,4329,4723,11586,01.194,551
2023-04-07T12:31:12,42.805,6.029,CST-1368DR,4329,4719,11575,01.198,551
2023-04-07T12:34:14,42.805,6.029,CST-1368DR,4329,4717,11572,01.199,551
2023-04-07T12:37:16,42.805,6.029,CST-1368DR,4329,4717,11572,01.199,551
2023-04-07T12:40:17,42.805,6.029,CST-1368DR,4329,4720,11578,01.197,551
2023-04-07T12:43:19,42.805,6.029,CST-1368DR,4329,4723,11586,01.194,551
2023-04-07T12:46:20,42.805,6.029,CST-1368DR,4329,4722,11583,01.195,551
2023-04-07T12:49:22,42.805,6.029,CST-1368DR,4329,4716,11568,01.200,551
2023-04-07T12:52:24,42.805,6.029,CST-1368DR,4329,4715,11567,01.201,551
2023-04-07T12:55:25,42.805,6.029,CST-1368DR,4329,4719,11577,01.197,551
2023-04-07T12:58:27,42.805,6.029,CST-1368DR,4329,4714,11564,01.202,551
2023-04-07T13:01:28,42.805,6.029,CST-1368DR,4329,4719,11577,01.197,551
2023-04-07T13:04:30,42.805,6.029,CST-1368DR,4329,4720,11578,01.197,552
2023-04-07T13:07:31,42.805,6.029,CST-1368DR,4329,4717,11572,01.199,551
2023-04-07T13:10:33,42.805,6.029,CST-1368DR,4329,4722,11583,01.195,551
2023-04-07T13:13:35,42.805,6.029,CST-1368DR,4329,4719,11575,01.198,551
2023-04-07T13:16:36,42.805,6.029,CST-1368DR,4329,4721,11580,01.196,551
2023-04-07T13:19:38,42.805,6.029,CST-1368DR,4329,4718,11575,01.198,551
2023-04-07T13:22:39,42.805,6.029,CST-1368DR,4329,4717,11572,01.199,551
2023-04-07T13:25:41,42.805,6.029,CST-1368DR,4329,4718,11574,01.198,551
2023-04-07T13:28:42,42.805,6.029,CST-1368DR,4329,4722,11584,01.195,551
2023-04-07T13:31:44,42.805,6.029,CST-1368DR,4329,4718,11574,01.198,551
2023-04-07T13:34:46,42.805,6.029,CST-1368DR,4329,4717,11572,01.199,551
2023-04-07T13:37:47,42.805,6.029,CST-1368DR,4329,4720,11578,01.197,551
2023-04-07T13:40:49,42.805,6.029,CST-1368DR,4329,4716,11570,01.200,551
2023-04-07T13:43:50,42.805,6.029,CST-1368DR,4329,4719,11576,01.197,551
2023-04-07T13:46:52,42.805,6.029,CST-1368DR,4329,4714,11563,01.202,552
2023-04-07T13:49:54,42.805,6.029,CST-1368DR,4329,4719,11576,01.197,552
2023-04-07T13:52:55,42.805,6.029,CST-1368DR,4329,4716,11568,01.200,551
2023-04-07T13:55:57,42.805,6.029,CST-1368DR,4329,4718,11573,01.198,551
2023-04-07T13:58:58,42.805,6.029,CST-1368DR,4329,4715,11565,01.201,551
2023-04-07T14:02:00,42.805,6.029,CST-1368DR,4329,4715,11567,01.201,551
2023-04-07T14:05:01,42.805,6.029,CST-1368DR,4329,4720,11578,01.197,551
2023-04-07T14:08:03,42.805,6.029,CST-1368DR,4329,4727,11597,01.190,551
2023-04-07T14:11:05,42.805,6.029,CST-1368DR,4329,4715,11565,01.201,551
2023-04-07T14:14:06,42.805,6.029,CST-1368DR,4329,4714,11564,01.202,551
2023-04-07T14:17:08,42.805,6.029,CST-1368DR,4329,4715,11567,01.201,551
2023-04-07T14:20:09,42.805,6.029,CST-1368DR,4329,4716,11569,01.200,551
2023-04-07T14:23:11,42.805,6.029,CST-1368DR,4329,4709,11551,01.206,552
2023-04-07T14:26:12,42.805,6.029,CST-1368DR,4329,4716,11568,01.200,551
2023-04-07T14:29:14,42.805,6.029,CST-1368DR,4329,4715,11567,01.201,552
2023-04-07T14:32:16,42.805,6.029,CST-1368DR,4329,4720,11578,01.197,551
2023-04-07T14:35:17,42.805,6.029,CST-1368DR,4329,4725,11592,01.192,551
2023-04-07T14:38:19,42.805,6.029,CST-1368DR,4329,4719,11576,01.197,551
2023-04-07T14:41:20,42.805,6.029,CST-1368DR,4329,4718,11574,01.198,551
2023-04-07T14:44:22,42.805,6.029,CST-1368DR,4329,4716,11569,01.200,551
2023-04-07T14:47:23,42.805,6.029,CST-1368DR,4329,4716,11570,01.200,551
2023-04-07T14:50:25,42.805,6.029,CST-1368DR,4329,4717,11570,01.200,551
2023-04-07T14:53:27,42.805,6.029,CST-1368DR,4329,4721,11581,01.196,551
2023-04-07T14:56:28,42.805,6.029,CST-1368DR,4329,4716,11568,01.200,551
2023-04-07T14:59:30,42.805,6.029,CST-1368DR,4329,4719,11575,01.198,551
2023-04-07T15:02:31,42.805,6.029,CST-1368DR,4329,4716,11570,01.200,551
2023-04-07T15:05:33,42.805,6.029,CST-1368DR,4329,4716,11570,01.200,551
2023-04-07T15:08:35,42.805,6.029,CST-1368DR,4329,4719,11575,01.198,551
2023-04-07T15:11:36,42.805,6.029,CST-1368DR,4329,4715,11566,01.201,551
2023-04-07T15:14:38,42.805,6.029,CST-1368DR,4329,4723,11585,01.194,551
2023-04-07T15:17:39,42.805,6.029,CST-1368DR,4329,4725,11591,01.192,551
2023-04-07T15:20:41,42.805,6.029,CST-1368DR,4329,4717,11572,01.199,551
2023-04-07T15:23:42,42.805,6.029,CST-1368DR,4329,4716,11569,01.200,551
2023-04-07T15:26:44,42.805,6.029,CST-1368DR,4329,4717,11571,01.199,552
2023-04-07T15:29:46,42.805,6.029,CST-1368DR,4329,4718,11574,01.198,551
2023-04-07T15:32:47,42.805,6.029,CST-1368DR,4329,4721,11580,01.196,551
2023-04-07T15:35:49,42.805,6.029,CST-1368DR,4329,4718,11574,01.198,551
2023-04-07T15:38:50,42.805,6.029,CST-1368DR,4329,4719,11577,01.197,551
2023-04-07T15:41:52,42.805,6.029,CST-1368DR,4329,4721,11581,01.196,551
2023-04-07T15:44:53,42.805,6.029,CST-1368DR,4329,4720,11578,01.197,551
2023-04-07T15:47:55,42.805,6.029,CST-1368DR,4329,4718,11573,01.198,551
2023-04-07T15:50:57,42.805,6.029,CST-1368DR,4329,4719,11576,01.197,551
2023-04-07T15:53:58,42.805,6.029,CST-1368DR,4329,4723,11587,01.194,551
2023-04-07T15:57:00,42.805,6.029,CST-1368DR,4329,4716,11568,01.200,551
2023-04-07T16:00:01,42.805,6.029,CST-1368DR,4329,4712,11558,01.204,551
2023-04-07T16:03:03,42.805,6.029,CST-1368DR,4329,4719,11575,01.198,551
2023-04-07T16:06:05,42.805,6.029,CST-1368DR,4329,4710,11554,01.205,551
2023-04-07T16:09:06,42.805,6.029,CST-1368DR,4329,4720,11578,01.197,551
2023-04-07T16:12:08,42.805,6.029,CST-1368DR,4329,4718,11573,01.198,551
2023-04-07T16:15:09,42.805,6.029,CST-1368DR,4329,4710,11553,01.205,551
2023-04-07T16:18:11,42.805,6.029,CST-1368DR,4329,4711,11557,01.204,551
2023-04-07T16:21:12,42.805,6.029,CST-1368DR,4329,4720,11578,01.197,551
2023-04-07T16:24:14,42.805,6.029,CST-1368DR,4329,4719,11576,01.197,551
2023-04-07T16:27:16,42.805,6.029,CST-1368DR,4329,4710,11555,01.205,551
2023-04-07T16:30:17,42.805,6.029,CST-1368DR,4329,4715,11567,01.201,551
2023-04-07T16:33:19,42.805,6.029,CST-1368DR,4329,4716,11569,01.200,551
2023-04-07T16:36:20,42.805,6.029,CST-1368DR,4329,4713,11562,01.202,551